Погода в Байките

Погода в Байките : погода сейчас, прогноз погоды и архив. Всё, что Вы хотите узнать о погоде в Байките!

Хотите узнать прогноз погоды в Байките? Тогда Вам сюда: Погода в Байките

Поиск расширенной информации на нашем сайте:

Другие новости

Новости СМИ2

Главная страница сайта

Новости сайта

02.10.2013

Напоминаем, что на нашем новом сайте вы можете получить высокодетализированные прогнозы погоды по пунктам России, СНГ и мира (включающие важные для авиации метеовеличины, такие как направление и скорость ветра, видимость, явления погоды, количество и форма облачности, нижняя и верхняя граница облачности), а также ознакомиться с разнообразными материалами по авиационной метеорологии и подборкой полезных ссылок на эту тему.

Сайт Метеоцентр.Азия посвящён разработке технологий оптимизации авиаметеорологического обслуживания, включая проектирование и перспективное создание нескольких автоматизированных авиаметеорологических систем:
- система выпуска высокодетальных прогностических карт явлений погоды для нижнего воздушного пространства по России и ближнему зарубежью;
- система верификации прогнозов TAF (выпускаемых синоптиками официальных АМСГ РФ и ближнего зарубежья) и AUTOTAF (выпускаемых сайтом Метеоцентр.Азия) - выявление ошибок, онлайн-сопоставление с фактической погодой METAR, автоматическое внесение коррективов в прогнозы при резком отклонении фактической погоды от прогноза, подсчёт оправдываемости прогнозов по элементам и в целом;
- система обработки, анализа и отображения авиаметеорологической информации для применения провайдерами метеорологической информации.


Погода в Байките - сегодня

Время (UTC), дата Ветер
(°,м/с) 
Видим.   Явления Облачность Т
(°С)
Тd
(°С)
f(%) Тe
(°С)
Pmin
(гПа)
dP
(гПа)
Po
(мм)
O2
(г/м3)
Тmin Tmax R s Состояние
почвы
06 26.03.17 210 (ЮЗ) 20000 м  в посл. час ливневой снег  8/8 600 м кучево-дожд. 
[Cb cap]
+1.6 -4.6 63 -1  1008.9  2.2  732  293           
09 26.03.17 230 (ЮЗ) 20000 м    6/6 600 м кучево-дожд. 
[Cb cap]
+0.6 -7.6 54 -1  1011.9  2.8  736  297           
12 26.03.17 тихо ()   20000 м  гроза, пыльная буря{ливн. осадки}  5/0 кучево-дожд. 
[Cb cap]
-0.4 -7.3 60 -0  1014.2  2.1  737  298    +1.7       
15 26.03.17 240 (ЮЗ) 4000 м  слаб. ливневой снег  10/8 600 м кучево-дожд., средняя 
[Cb cap|As trans]
-1.3 -2.2 94 -1  1015  9.7  738  299           
18 26.03.17 тихо ()   4000 м  слаб. ливневой снег  9/6 600 м кучево-дожд., средняя, верхняя 
[Cb cap|Ac As|Ci fib]
-1.7 -2.6 94 -2  1015.8  0.8  739  300           
00 27.03.17 310 (СЗ) 20000 м  {ливн. осадки}  5/5 1000 м кучево-дожд. 
[Cb cap]
-7.5 -8.7 91 -7  1019.1  1.6  740  308  -7.9    78  равномерный
сухой снег
100% 
03 27.03.17 090 (В) 20000 м    9/9 600 м 
[Cu med, cong]
-4.1 -5.3 91 -4  1019  0.3  741  304           
06 27.03.17 тихо ()   20000 м    9/9 600 м кучево-дожд. 
[Cb cap]
+2 -8.6 45 +2  1018.4  0.1  741  297           
09 27.03.17 тихо ()   20000 м    8/8 1000 м 
[Cu hum]
+6.8 -7.9 34 +7  1017.6  -0.3  740  292           
12 27.03.17 тихо ()   20000 м    8/8 1000 м 
[Sc]
+0.8 -10.7 42 +1  1018.4  0.1  741  299    +7.8       
15 27.03.17 тихо ()   4000 м    8/0 верхняя 
[Ci fib]
-5.2 -9.2 73 -5  1020.1  741  305           
18 27.03.17 360 (С) 4000 м    1/0 верхняя 
[Ci fib]
-8.8 -10.3 89 -9  1021  0.4  742  310           
21 27.03.17 тихо ()   4000 м    ясно 
-10.3 -10.9 95 -10  1020.6  -0.5  741  311           
00 28.03.17 тихо ()   20000 м    10/1 1000 м верхняя 
[Sc|Cs]
-11 -11.6 95 -11  1020.8  0.1  741  312  -11.3      77  равномерный
сухой снег
100% 
03 28.03.17 290 (З) 20000 м  в посл. час ливневой дождь  10/5 1000 м верхняя 
[Sc|Cs]
-6 -9.1 79 -7  1019.5  -0.7  741  306           
06 28.03.17 290 (З) 20000 м  {ливн. осадки}  10/10 1000 м 
[Sc]
-0.2 -8 56 1018.4  -0.4  740  299           
09 28.03.17 тихо ()   10 км  слаб. ливневой снег  10/10 600 м кучево-дожд. 
[Cb cap]
+0.4 -6.2 61 1018.5  0.2  741  299           
12 28.03.17 тихо ()   20000 м  в посл. час ливневой дождь  10/10 600 м кучево-дожд. 
[Cb cap]
+0.1 -2 86 1018.6  0.1  741  299    +0.1  0.0     
15 28.03.17 тихо ()   4000 м  слаб. ливневой снег  10/10 600 м кучево-дожд. 
[Cb cap]
-0.2 -1.1 94 -0  1018.5  -0.2  741  299           
18 28.03.17 350 (С) 4000 м  {ливн. осадки}  10/10 600 м кучево-дожд. 
[Cb cap]
-0.7 -1.7 93 1018.1  -0.4  740  299           
21 28.03.17 120 (ЮВ) 4000 м    10/10 600 м кучево-дожд. 
[Cb cap]
-1.2 -2.2 93 -1  1017.6  -0.6  740  300           
00 29.03.17 120 (ЮВ) 20000 м  слаб. ливневой снег  10/10 600 м кучево-дожд. 
[Cb cap]
-0.5 -2 90 1016.8  -0.7  739  299  -1.3    0.0  76  равномерный
сухой снег
100% 
03 29.03.17 тихо ()   20000 м  {ливн. осадки}  10/10 600 м кучево-дожд. 
[Cb cap]
+1.6 -0.3 87 +2  1016  -0.5  739  296           
06 29.03.17 140 (ЮВ) 20000 м  {ливн. осадки}  10/10 600 м кучево-дожд. 
[Cb cap]
+5 -0.6 67 +5  1014.2  -1.3  738  292           
09 29.03.17 160 (Ю) 20000 м    10/10 1000 м кучево-дожд. 
[Cb cap]
+6 -0.6 63 +5  1012.7  -1.4  737  291           
Время (UTC), дата Ветер
(°,м/с) 
Видим.   Явления Облачность Т
(°С)
Тd
(°С)
f(%) Тe
(°С)
Pmin
(гПа)
dP
(гПа)
Po
(мм)
O2
(г/м3)
Тmin Tmax R s Состояние
почвы

Для получения пояснительной информации подведите курсор к названию столбца.

ПОГОДА в Байките - архив

Всё, что Вы хотите узнать о погоде в Байките - удобно и подробно!

Выберите нужную дату (начиная с 1 января 2015* года) и нажмите кнопку "Найти".
Будут отображены архивные сводки погоды по пункту Байкит, начиная с указанной даты.


Отображать данные в формате CSV (для использования в таблицах Excel)


Внимание! Наш архив погоды предназначен исключительно для личного некоммерческого использования в познавательных целях. Если Вам необходимы официальные справки о состоянии погоды (для производственных, юридических, коммерческих и т.п. целей), обращайтесь в органы Росгидромета.

*Примечание: данная дата относится к архиву по метеостанциям СССР (Россия, СНГ, Балтия).
Архив по метеостанциям Зарубежной Европы и Азии (кроме Китая) хранится 10 дней, по другим регионам земного шара (Китай, Африка, Америка, Австралия, Океания) - 1 день.

Байкит - район местоположения метеостанции


Название, широта, долгота, высота метеостанции:
Байкит 61.7°ш. 96.4°д. 262 м над ур. моря [Российская Федерация]

Дополнительная информация

В oтличие oт бoльшинства пoгoдных сайтoв мы публикуем пoдрoбную метеoинфoрмацию в детальнoм прoфессиoнальнoм фoрмате.

Характеристики температуры и влажнoсти вoздуха измеряются на высoте 2 м в тени вдали oт зданий и деревьев.
Скoрoсть ветра измеряется на высoте 10 м (на урoвне рoста челoвека скoрoсть ветра ниже в 1.5-2 раза). Если метеoстанция нахoдится в гoрoде или в лесу, тo скoрoсть ветра занижена на 2-4 м/с пo сравнению с oткрытым местoм. Скoрoсть ветра над акватoриями крупных рек и oзёр, а также на вершинах хoлмoв на 2-5 м/с выше, чем в oбычных услoвиях.
Атмoсфернoе давление в разных тoчках местнoсти мoжет значительнo oтличаться oт давления на метеoстанции, в зависимoсти oт услoвий рельефа (при пoдъёме на 10 м давление пoнижается примернo на 1 мм рт.ст.).